Location: ??
(34.9170°N, 135.5016°E)
Time: 22:57:31
(UTC+00:00)

RS-15 - Pass Details

Date: 22 April 2021
Orbit: 1888 x 2157 km, 64.8° (Epoch: 12 May)

Event Time Altitude Azimuth Distance (km) Brightness Sun altitude
Rises 13:50:03 0° 310° (NW) 5,419 11.1 -40.1°
Reaches altitude 10° 13:56:52 10° 338° (NNW) 4,487 10.6 -40.6°
Maximum altitude 14:01:18 12° 2° (N) 4,322 10.4 -40.9°
Drops below altitude 10° 14:05:48 10° 25° (NNE) 4,572 10.4 -41.2°
Sets 14:12:57 0° 53° (NE) 5,630 10.7 -41.6°
